QPF
0.04 0.05 0.05 0.05 0.05 0.06 0.08 0.08 0.08 0.06 0.05 0.05 0.06 0.05 0.04 0.03 0.03 0.03 0.04 0.05 0.04 0.05 0.05 0.05 0.06 0.07 0.07 0.06 0.06 0.07 0.07 0.08 0.06 0.05 0.04 0.06 0.08 0.08
0.03 0.05 0.05 0.05 0.04 0.04 0.04 0.05 0.07 0.07 0.05 0.04 0.05 0.05 0.05 0.03 0.03 0.03 0.04 0.05 0.05 0.05 0.06 0.06 0.06 0.08 0.11 0.10 0.09 0.09 0.08 0.06 0.05 0.05 0.04 0.03 0.03 0.03
0.03 0.04 0.04 0.05 0.04 0.03 0.04 0.04 0.04 0.04 0.04 0.03 0.04 0.06 0.06 0.06 0.06 0.06 0.05 0.04 0.04 0.04 0.04 0.05 0.06 0.06 0.08 0.10 0.10 0.08 0.06 0.05 0.05 0.04 0.04 0.05 0.05 0.04
0.02 0.03 0.03 0.04 0.04 0.05 0.05 0.05 0.05 0.04 0.03 0.03 0.04 0.04 0.04 0.04 0.05 0.04 0.03 0.02 0.02 0.03 0.04 0.05 0.05 0.05 0.05 0.05 0.05 0.04 0.03 0.03 0.03 0.03 0.04 0.05 0.06 0.06
0.02 0.02 0.03 0.04 0.04 0.04 0.05 0.05 0.04 0.04 0.04 0.04 0.03 0.02 0.02 0.02 0.02 0.02 0.02 0.02 0.01 0.01 0.02 0.02 0.02 0.02 0.01 0.01 0.01 0.01 0.01 0.02 0.02 0.03 0.03 0.03 0.04 0.04
0.02 0.02 0.02 0.03 0.04 0.04 0.04 0.03 0.04 0.04 0.04 0.03 0.02 0.02 0.01 0.01 0.01 0.01 0.02 0.02 0.02 0.01 0.01 0.02 0.02 0.02 0.01 0.01 0.01 0.01 0.01 0.02 0.02 0.02 0.02 0.02 0.01 0.02
0.03 0.03 0.03 0.04 0.04 0.04 0.03 0.03 0.03 0.03 0.02 0.02 0.02 0.02 0.03 0.04 0.03 0.03 0.02 0.02 0.02 0.01 0.02 0.02 0.03 0.03 0.03 0.03 0.02 0.02 0.02 0.03 0.04 0.04 0.03 0.02 0.02 0.03
0.03 0.02 0.03 0.03 0.02 0.02 0.03 0.02 0.02 0.01 0.01 0.02 0.03 0.04 0.05 0.04 0.04 0.03 0.03 0.03 0.03 0.02 0.02 0.03 0.03 0.03 0.03 0.03 0.03 0.03 0.03 0.03 0.03 0.02 0.02 0.02 0.01 0.02
0.02 0.02 0.02 0.02 0.02 0.01 0.01 0.01 0.01 0.01 0.01 0.01 0.01 0.02 0.03 0.03 0.02 0.02 0.03 0.02 0.02 0.02 0.02 0.02 0.02 0.02 0.03 0.03 0.04 0.03 0.02 0.02 0.01 0.01 0.01 0.02 0.01 0.01
0.02 0.03 0.03 0.03 0.03 0.02 0.02 0.02 0.02 0.02 0.01 0.01 0.01 0.01 0.01 0.01 0.01 0.02 0.02 0.02 0.02 0.02 0.02 0.01 0.01 0.01 0.01 0.02 0.02 0.02 0.02 0.01 0.01 0.01 0.01 0.02 0.02 0.02
0.03 0.03 0.03 0.03 0.04 0.04 0.03 0.03 0.02 0.02 0.01 0.01 0.01 0.01 0.00 0.00 0.01 0.01 0.01 0.01 0.01 0.01 0.01 0.01 0.01 0.01 0.01 0.01 0.01 0.01 0.01 0.01 0.01 0.00 0.00 0.01 0.01 0.01
0.07 0.06 0.06 0.05 0.05 0.05 0.04 0.03 0.02 0.01 0.01 0.01 0.00 0.00 0.00 0.00 0.00 0.01 0.01 0.02 0.02 0.01 0.01 0.01 0.01 0.01 0.01 0.01 0.01 0.01 0.00 0.00 0.00 0.00 0.00 0.00 0.00 0.01
0.09 0.08 0.06 0.04 0.04 0.04 0.04 0.02 0.01 0.01 0.00 0.00 0.00 0.00 0.00 0.00 0.00 0.00 0.00 0.01 0.01 0.01 0.01 0.01 0.01 0.02 0.02 0.02 0.01 0.01 0.00 0.00 0.00 0.00 0.00 0.01 0.01 0.01
0.06 0.04 0.03 0.02 0.02 0.02 0.02 0.01 0.00 0.00 0.00 0.00 0.00 0.00 0.00 0.00 0.00 0.01 0.01 0.00 0.00 0.01 0.01 0.01 0.01 0.02 0.02 0.02 0.02 0.01 0.01 0.01 0.01 0.01 0.01 0.01 0.01 0.01
0.04 0.02 0.01 0.01 0.01 0.00 0.00 0.00 0.00 0.00 0.00 0.00 0.00 0.00 0.00 0.01 0.01 0.01 0.01 0.01 0.01 0.01 0.00 0.00 0.01 0.01 0.01 0.01 0.01 0.01 0.01 0.02 0.02 0.01 0.01 0.01 0.01 0.01
0.02 0.02 0.01 0.01 0.01 0.00 0.00 0.00 0.00 0.00 0.00 0.00 0.01 0.01 0.01 0.01 0.01 0.01 0.02 0.01 0.01 0.01 0.01 0.01 0.01 0.01 0.01 0.01 0.01 0.02 0.02 0.02 0.01 0.01 0.01 0.01 0.00 0.00
0.01 0.01 0.01 0.01 0.01 0.00 0.00 0.01 0.00 0.00 0.00 0.00 0.01 0.01 0.01 0.01 0.01 0.01 0.02 0.02 0.02 0.01 0.01 0.01 0.01 0.01 0.01 0.01 0.02 0.02 0.02 0.02 0.01 0.01 0.01 0.01 0.00 0.00
0.01 0.01 0.01 0.01 0.01 0.01 0.01 0.01 0.01 0.01 0.01 0.01 0.01 0.01 0.01 0.01 0.00 0.00 0.01 0.01 0.01 0.01 0.02 0.02 0.01 0.01 0.02 0.02 0.02 0.02 0.02 0.02 0.01 0.01 0.01 0.01 0.01 0.00
0.01 0.01 0.02 0.02 0.01 0.02 0.02 0.01 0.01 0.01 0.01 0.01 0.01 0.01 0.01 0.01 0.01 0.01 0.01 0.01 0.01 0.01 0.01 0.02 0.02 0.02 0.02 0.02 0.01 0.01 0.01 0.02 0.02 0.02 0.01 0.01 0.01 0.01
0.01 0.01 0.01 0.01 0.02 0.02 0.03 0.03 0.03 0.03 0.03 0.02 0.02 0.02 0.02 0.02 0.01 0.01 0.01 0.01 0.01 0.01 0.01 0.01 0.02 0.02 0.02 0.01 0.01 0.01 0.01 0.01 0.02 0.02 0.01 0.01 0.01 0.01
0.01 0.01 0.01 0.02 0.02 0.03 0.03 0.03 0.03 0.03 0.03 0.03 0.03 0.03 0.03 0.03 0.02 0.02 0.01 0.01 0.01 0.01 0.01 0.01 0.01 0.01 0.02 0.02 0.02 0.01 0.01 0.01 0.01 0.01 0.02 0.02 0.03 0.03
0.01 0.01 0.01 0.01 0.01 0.01 0.01 0.01 0.01 0.01 0.02 0.02 0.02 0.02 0.03 0.03 0.03 0.03 0.02 0.02 0.01 0.01 0.01 0.01 0.02 0.02 0.02 0.03 0.03 0.03 0.02 0.02 0.02 0.02 0.02 0.03 0.03 0.03
0.01 0.01 0.01 0.01 0.01 0.01 0.01 0.01 0.01 0.01 0.01 0.01 0.01 0.02 0.02 0.02 0.02 0.02 0.02 0.01 0.01 0.01 0.01 0.01 0.01 0.01 0.01 0.02 0.02 0.03 0.03 0.03 0.03 0.04 0.04 0.03 0.02 0.02
MSLP
1016.32 1016.50 1016.71 1016.96 1017.23 1017.54 1017.88 1018.25 1018.65 1019.08 1019.53 1020.00 1020.47 1020.92 1021.34 1021.69 1021.97 1022.16 1022.26 1022.29 1022.26 1022.19 1022.11 1022.04 1021.99 1021.98 1022.01 1022.08 1022.18 1022.30 1022.43 1022.58 1022.74 1022.90 1023.06 1023.21 1023.35 1023.47
1016.18 1016.35 1016.55 1016.78 1017.05 1017.35 1017.69 1018.07 1018.50 1018.96 1019.46 1019.98 1020.51 1021.02 1021.48 1021.88 1022.19 1022.42 1022.55 1022.61 1022.61 1022.57 1022.53 1022.50 1022.49 1022.52 1022.59 1022.69 1022.82 1022.95 1023.09 1023.23 1023.37 1023.50 1023.63 1023.75 1023.86 1023.95
1016.03 1016.19 1016.37 1016.59 1016.84 1017.14 1017.48 1017.87 1018.31 1018.80 1019.33 1019.89 1020.45 1020.99 1021.49 1021.92 1022.27 1022.52 1022.69 1022.79 1022.82 1022.84 1022.85 1022.88 1022.93 1023.03 1023.16 1023.31 1023.47 1023.63 1023.78 1023.92 1024.03 1024.13 1024.22 1024.29 1024.36 1024.41
1015.83 1015.98 1016.15 1016.35 1016.60 1016.89 1017.22 1017.62 1018.06 1018.56 1019.10 1019.66 1020.24 1020.80 1021.32 1021.77 1022.14 1022.43 1022.63 1022.77 1022.86 1022.94 1023.02 1023.12 1023.26 1023.43 1023.62 1023.84 1024.05 1024.25 1024.42 1024.56 1024.66 1024.74 1024.79 1024.82 1024.85 1024.86
1015.58 1015.72 1015.89 1016.08 1016.32 1016.59 1016.92 1017.29 1017.72 1018.21 1018.73 1019.29 1019.86 1020.42 1020.94 1021.40 1021.79 1022.10 1022.35 1022.54 1022.69 1022.83 1022.99 1023.17 1023.39 1023.64 1023.91 1024.19 1024.46 1024.71 1024.91 1025.07 1025.18 1025.25 1025.29 1025.30 1025.30 1025.29
1015.32 1015.46 1015.61 1015.80 1016.02 1016.27 1016.57 1016.92 1017.32 1017.76 1018.25 1018.78 1019.32 1019.85 1020.36 1020.82 1021.22 1021.56 1021.84 1022.08 1022.29 1022.50 1022.73 1022.98 1023.28 1023.60 1023.94 1024.30 1024.63 1024.93 1025.18 1025.38 1025.52 1025.62 1025.67 1025.69 1025.69 1025.68
1015.09 1015.22 1015.37 1015.55 1015.74 1015.98 1016.24 1016.54 1016.88 1017.27 1017.70 1018.17 1018.66 1019.15 1019.63 1020.08 1020.48 1020.84 1021.15 1021.43 1021.70 1021.96 1022.24 1022.56 1022.91 1023.29 1023.70 1024.10 1024.50 1024.86 1025.17 1025.43 1025.63 1025.78 1025.87 1025.93 1025.96 1025.98
1014.92 1015.05 1015.20 1015.36 1015.54 1015.74 1015.95 1016.20 1016.47 1016.79 1017.14 1017.53 1017.96 1018.40 1018.84 1019.26 1019.66 1020.03 1020.36 1020.67 1020.97 1021.27 1021.59 1021.94 1022.32 1022.74 1023.18 1023.64 1024.08 1024.50 1024.88 1025.21 1025.48 1025.70 1025.87 1025.99 1026.08 1026.14
1014.82 1014.95 1015.11 1015.27 1015.43 1015.59 1015.76 1015.94 1016.14 1016.37 1016.64 1016.95 1017.30 1017.68 1018.07 1018.47 1018.85 1019.22 1019.56 1019.88 1020.19 1020.51 1020.84 1021.20 1021.59 1022.02 1022.48 1022.95 1023.43 1023.90 1024.34 1024.73 1025.08 1025.38 1025.63 1025.83 1025.98 1026.10
1014.77 1014.93 1015.09 1015.25 1015.40 1015.53 1015.66 1015.78 1015.90 1016.06 1016.25 1016.48 1016.76 1017.07 1017.42 1017.78 1018.15 1018.50 1018.84 1019.16 1019.47 1019.78 1020.10 1020.44 1020.82 1021.23 1021.67 1022.15 1022.63 1023.12 1023.60 1024.05 1024.46 1024.83 1025.15 1025.42 1025.64 1025.82
1014.74 1014.91 1015.09 1015.26 1015.40 1015.51 1015.60 1015.67 1015.74 1015.83 1015.96 1016.12 1016.34 1016.61 1016.92 1017.25 1017.60 1017.94 1018.26 1018.58 1018.87 1019.16 1019.45 1019.76 1020.09 1020.46 1020.87 1021.31 1021.78 1022.27 1022.76 1023.23 1023.68 1024.09 1024.46 1024.78 1025.05 1025.26
1014.66 1014.84 1015.03 1015.20 1015.34 1015.44 1015.51 1015.55 1015.59 1015.64 1015.72 1015.85 1016.03 1016.26 1016.55 1016.86 1017.19 1017.52 1017.84 1018.13 1018.41 1018.66 1018.92 1019.18 1019.47 1019.78 1020.14 1020.53 1020.96 1021.41 1021.87 1022.34 1022.78 1023.20 1023.58 1023.91 1024.20 1024.44
1014.47 1014.66 1014.85 1015.02 1015.15 1015.25 1015.30 1015.34 1015.36 1015.39 1015.45 1015.56 1015.73 1015.96 1016.23 1016.54 1016.86 1017.19 1017.50 1017.78 1018.04 1018.27 1018.48 1018.70 1018.93 1019.19 1019.49 1019.82 1020.18 1020.58 1020.99 1021.41 1021.82 1022.20 1022.55 1022.87 1023.15 1023.39
1014.15 1014.32 1014.50 1014.65 1014.78 1014.86 1014.92 1014.95 1014.97 1015.00 1015.07 1015.19 1015.37 1015.60 1015.88 1016.20 1016.53 1016.85 1017.16 1017.43 1017.68 1017.89 1018.08 1018.26 1018.45 1018.66 1018.90 1019.16 1019.46 1019.79 1020.13 1020.48 1020.82 1021.14 1021.43 1021.70 1021.94 1022.16
1013.70 1013.83 1013.97 1014.10 1014.20 1014.27 1014.32 1014.35 1014.38 1014.43 1014.52 1014.66 1014.86 1015.11 1015.40 1015.73 1016.07 1016.40 1016.71 1016.99 1017.23 1017.43 1017.61 1017.77 1017.94 1018.11 1018.31 1018.52 1018.77 1019.02 1019.29 1019.55 1019.81 1020.05 1020.27 1020.47 1020.67 1020.85
1013.17 1013.24 1013.32 1013.40 1013.47 1013.51 1013.54 1013.57 1013.61 1013.67 1013.78 1013.94 1014.16 1014.43 1014.74 1015.09 1015.43 1015.77 1016.09 1016.36 1016.60 1016.81 1016.99 1017.15 1017.31 1017.48 1017.65 1017.84 1018.04 1018.24 1018.45 1018.64 1018.82 1018.98 1019.13 1019.27 1019.41 1019.56
1012.63 1012.64 1012.65 1012.67 1012.67 1012.68 1012.68 1012.69 1012.72 1012.79 1012.90 1013.07 1013.30 1013.58 1013.90 1014.24 1014.58 1014.92 1015.23 1015.51 1015.76 1015.97 1016.17 1016.35 1016.52 1016.70 1016.88 1017.07 1017.25 1017.43 1017.60 1017.75 1017.87 1017.97 1018.07 1018.15 1018.26 1018.38
1012.20 1012.13 1012.07 1012.01 1011.95 1011.89 1011.85 1011.82 1011.82 1011.87 1011.97 1012.13 1012.34 1012.61 1012.91 1013.23 1013.56 1013.88 1014.17 1014.45 1014.69 1014.92 1015.13 1015.34 1015.54 1015.76 1015.97 1016.18 1016.39 1016.58 1016.74 1016.88 1016.99 1017.07 1017.13 1017.19 1017.28 1017.39
1011.97 1011.83 1011.69 1011.55 1011.41 1011.28 1011.17 1011.08 1011.04 1011.04 1011.10 1011.21 1011.38 1011.61 1011.86 1012.14 1012.42 1012.70 1012.97 1013.22 1013.46 1013.69 1013.92 1014.16 1014.41 1014.67 1014.94 1015.20 1015.46 1015.69 1015.89 1016.05 1016.18 1016.27 1016.34 1016.41 1016.50 1016.62
1011.98 1011.78 1011.58 1011.36 1011.14 1010.93 1010.74 1010.57 1010.45 1010.37 1010.36 1010.40 1010.50 1010.65 1010.83 1011.04 1011.26 1011.48 1011.70 1011.92 1012.14 1012.37 1012.61 1012.88 1013.17 1013.48 1013.82 1014.15 1014.48 1014.78 1015.04 1015.27 1015.45 1015.59 1015.70 1015.80 1015.91 1016.05
1012.23 1012.00 1011.74 1011.45 1011.16 1010.86 1010.57 1010.31 1010.09 1009.91 1009.80 1009.74 1009.74 1009.79 1009.88 1009.99 1010.13 1010.27 1010.43 1010.60 1010.79 1011.01 1011.26 1011.56 1011.89 1012.26 1012.66 1013.06 1013.47 1013.86 1014.21 1014.52 1014.77 1014.98 1015.16 1015.31 1015.46 1015.63
1012.69 1012.42 1012.12 1011.77 1011.40 1011.01 1010.63 1010.26 1009.93 1009.64 1009.40 1009.22 1009.10 1009.03 1009.01 1009.02 1009.06 1009.12 1009.21 1009.33 1009.49 1009.70 1009.95 1010.26 1010.63 1011.05 1011.50 1011.98 1012.47 1012.94 1013.38 1013.78 1014.13 1014.42 1014.67 1014.88 1015.08 1015.28
1013.25 1012.96 1012.62 1012.22 1011.78 1011.31 1010.83 1010.35 1009.90 1009.48 1009.12 1008.80 1008.55 1008.36 1008.21 1008.11 1008.06 1008.04 1008.07 1008.14 1008.27 1008.46 1008.72 1009.04 1009.44 1009.89 1010.40 1010.94 1011.49 1012.04 1012.56 1013.04 1013.47 1013.85 1014.17 1014.45 1014.69 1014.92
Thickness
5734 5733 5732 5732 5731 5730 5728 5724 5717 5711 5706 5705 5702 5699 5696 5694 5691 5689 5686 5683 5681 5680 5677 5675 5673 5671 5669 5667 5665 5663 5662 5660 5659 5657 5656 5655 5653 5653
5730 5728 5727 5728 5727 5726 5724 5722 5719 5714 5706 5703 5698 5695 5692 5690 5685 5683 5680 5677 5674 5672 5670 5667 5665 5663 5661 5658 5657 5654 5653 5651 5650 5648 5647 5645 5644 5643
5726 5725 5722 5721 5721 5721 5720 5717 5715 5711 5703 5698 5693 5689 5685 5683 5680 5678 5676 5673 5669 5665 5663 5660 5657 5655 5652 5650 5648 5646 5644 5642 5640 5638 5637 5635 5634 5633
5721 5720 5718 5718 5715 5715 5714 5711 5708 5705 5700 5692 5687 5684 5680 5677 5674 5672 5671 5668 5664 5659 5655 5652 5650 5647 5644 5642 5639 5637 5635 5633 5631 5629 5627 5625 5624 5622
5717 5715 5714 5712 5710 5710 5708 5706 5704 5702 5697 5690 5685 5680 5676 5672 5669 5667 5664 5661 5658 5653 5648 5644 5641 5638 5635 5633 5630 5628 5625 5623 5621 5619 5617 5615 5613 5611
5713 5711 5709 5708 5706 5705 5703 5700 5698 5695 5691 5687 5681 5676 5671 5667 5665 5662 5658 5655 5652 5648 5643 5638 5634 5630 5627 5624 5621 5618 5616 5614 5611 5609 5607 5605 5603 5601
5708 5706 5703 5700 5697 5697 5697 5694 5692 5690 5687 5682 5676 5671 5666 5661 5660 5657 5653 5650 5645 5642 5638 5634 5630 5627 5622 5617 5613 5610 5607 5604 5602 5599 5597 5595 5592 5590
5703 5701 5699 5695 5691 5688 5686 5684 5682 5681 5678 5675 5670 5665 5660 5657 5654 5651 5647 5644 5638 5635 5632 5628 5625 5621 5617 5612 5606 5601 5598 5595 5592 5590 5587 5584 5582 5580
5698 5695 5694 5690 5686 5684 5679 5675 5672 5669 5667 5666 5663 5659 5655 5651 5648 5644 5639 5637 5633 5630 5625 5621 5617 5614 5609 5604 5598 5593 5590 5586 5583 5581 5578 5576 5573 5571
5691 5688 5685 5682 5679 5676 5674 5670 5667 5663 5660 5657 5654 5651 5648 5644 5640 5637 5633 5629 5625 5621 5617 5614 5611 5607 5603 5596 5590 5586 5582 5578 5575 5572 5570 5567 5565 5563
5684 5680 5677 5674 5667 5665 5665 5662 5659 5655 5650 5646 5643 5640 5636 5633 5630 5630 5627 5625 5620 5616 5611 5608 5604 5599 5595 5590 5584 5579 5575 5571 5568 5565 5562 5560 5557 5555
5677 5673 5667 5664 5659 5656 5657 5654 5650 5647 5645 5641 5636 5632 5629 5626 5622 5621 5621 5618 5615 5611 5604 5599 5596 5592 5588 5584 5580 5575 5570 5566 5562 5559 5556 5553 5550 5549
5673 5668 5662 5655 5651 5648 5647 5646 5641 5639 5638 5635 5632 5628 5624 5621 5617 5614 5611 5610 5607 5603 5598 5592 5589 5585 5582 5578 5575 5570 5566 5562 5558 5554 5550 5547 5544 5542
5665 5661 5655 5647 5643 5640 5639 5635 5632 5630 5633 5630 5627 5623 5619 5615 5611 5607 5602 5599 5595 5592 5588 5583 5581 5577 5575 5572 5569 5566 5562 5558 5554 5551 5547 5543 5539 5536
5656 5649 5644 5639 5636 5634 5629 5627 5625 5627 5626 5624 5620 5617 5614 5609 5604 5599 5595 5590 5587 5584 5580 5575 5573 5571 5569 5567 5564 5561 5557 5554 5550 5546 5542 5539 5536 5533
5647 5641 5636 5633 5630 5628 5624 5622 5621 5621 5619 5616 5613 5610 5606 5602 5598 5595 5591 5587 5583 5579 5574 5569 5565 5563 5562 5560 5558 5555 5552 5549 5545 5541 5538 5535 5532 5529
5641 5638 5635 5632 5628 5626 5623 5619 5616 5614 5610 5608 5606 5602 5598 5595 5591 5588 5583 5581 5577 5574 5571 5566 5562 5558 5555 5553 5551 5549 5546 5543 5540 5536 5530 5530 5528 5525
5632 5633 5631 5628 5625 5622 5618 5614 5610 5607 5604 5601 5598 5595 5591 5588 5584 5581 5577 5574 5572 5569 5566 5563 5559 5555 5552 5550 5544 5543 5540 5537 5534 5530 5526 5524 5523 5521
5626 5626 5624 5621 5618 5615 5612 5608 5604 5600 5596 5593 5590 5587 5584 5581 5578 5574 5571 5568 5565 5563 5561 5557 5553 5550 5547 5545 5542 5535 5534 5531 5528 5525 5523 5520 5518 5516
5622 5620 5617 5614 5611 5607 5604 5600 5596 5592 5588 5584 5582 5580 5577 5574 5571 5568 5565 5561 5559 5557 5554 5552 5548 5544 5541 5539 5537 5533 5527 5525 5522 5519 5517 5515 5513 5509
5618 5614 5610 5607 5603 5599 5595 5591 5588 5584 5580 5577 5574 5571 5570 5566 5564 5561 5558 5552 5550 5550 5548 5546 5541 5535 5534 5532 5531 5530 5526 5519 5515 5512 5510 5509 5507 5505
5612 5608 5605 5601 5596 5592 5588 5584 5581 5577 5573 5569 5567 5564 5562 5559 5556 5553 5551 5549 5546 5544 5542 5539 5535 5531 5529 5527 5525 5524 5521 5516 5511 5506 5503 5500 5499 5497
5606 5601 5597 5593 5589 5585 5581 5578 5574 5571 5567 5564 5561 5558 5555 5552 5549 5547 5545 5543 5540 5537 5535 5532 5530 5526 5524 5522 5520 5518 5516 5513 5510 5505 5502 5496 5492 5489